Skip Page Navigation
NASA JPL Caltech
NASA Logo - Jet Propulsion Laboratory + View the NASA Portal
+ Center for Near-Earth Object Studies
JPL Home Earth Solar System Stars & Galaxies Technology
JPL Solar System Dynamics
BODIES ORBITS EPHEMERIDES TOOLS PHYSICAL DATA DISCOVERY FAQ SITE MAP
JPL Small-Body Database Browser
Search: [ help ]  
541970 (2012 FP50)
Classification: Main-belt Asteroid          SPK-ID: 2541970
Ephemeris | Orbit Diagram | Orbital Elements | Mission Design | Physical Parameters | Discovery Circumstances ]

[ show orbit diagram ]
Orbital Elements at Epoch 2459396.5 (2021-Jul-01.0) TDB
Reference: JPL 9 (heliocentric ecliptic J2000)
 Element Value Uncertainty (1-sigma)   Units 
e .0852954848006281 7.3024e-08  
a 2.785641020849045 3.3328e-08 au
q 2.548038419495209 2.0228e-07 au
i 5.511349253895326 6.059e-06 deg
node 106.4907614732483 6.9528e-05 deg
peri 261.7922139318053 7.8019e-05 deg
M 169.5228914218649 3.5509e-05 deg
tp 2458596.827795064545
(2019-Apr-23.32779506)
0.0001673 TDB
period 1698.189497372112
4.65
3.0476e-05
8.344e-08
d
yr
n .2119904760670628 3.8045e-09 deg/d
Q 3.023243622202881 3.6171e-08 au
  Orbit Determination Parameters
   # obs. used (total)      139  
   data-arc span      6967 days (19.07 yr)  
   first obs. used      2002-01-12  
   last obs. used      2021-02-08  
   planetary ephem.      DE441  
   SB-pert. ephem.      SB441-N16  
   condition code      0  
   norm. resid. RMS      .54981  
   source      ORB  
   producer      Otto Matic  
   solution date      2021-Apr-14 20:25:02  

Additional Information
 Earth MOID = 1.5532 au 
 Jupiter MOID = 2.40398 au 
 T_jup = 3.319 
[ show covariance matrix ]

Ephemeris | Orbit Diagram | Orbital Elements | Mission Design | Physical Parameters | Discovery Circumstances ]

Physical Parameter Table
Parameter Symbol Value Units Sigma Reference Notes
absolute magnitude H 17.17   .39361 MPCxxxxx autocmod 2.8

541970 (2012 FP50)          Discovered 2012-Feb-28 by Pan-STARRS 1 at Haleakala
Reference: Last Updated: 2019-12-13

Alternate Designations
 2012 FP50 = 2014 SA335 = 2018 PH 
Ephemeris | Orbit Diagram | Orbital Elements | Mission Design | Physical Parameters | Discovery Circumstances ]
ABOUT SSD CREDITS/AWARDS PRIVACY/COPYRIGHT GLOSSARY LINKS
FirstGov 2021-Aug-02 20:16 UT
(server date/time)  
NASA Home Page
Site Manager:   Ryan S. Park
Webmaster  Alan B. Chamberlin